• în România
  • Lista ţărilor
  • Pe 7 zile
  • Temperatura apei
  • Hartă satelitară
  • Meteo pe hartă
  • Widget-uri
  • user-avatar
    Intrare

    Meteo pe oră la Luanda

    Astăzi, 27 Iulie, Joi

    Timp Temperatura Precipitaţii Vânt Presiune Umiditate
    00:00 +21°C° 0 mm 3 m/s 756 mmHg 86%
    01:00 +20°C° 0 mm 3 m/s 757 mmHg 88%
    02:00 +20°C° 0 mm 3 m/s 756 mmHg 89%
    03:00 +20°C° 0 mm 2 m/s 756 mmHg 90%
    04:00 +20°C° 0 mm 2 m/s 756 mmHg 91%
    05:00 +20°C° 0 mm 2 m/s 756 mmHg 91%
    06:00 +20°C° 0 mm 2 m/s 756 mmHg 90%
    07:00 +20°C° 0 mm 2 m/s 756 mmHg 87%
    08:00 +24°C° 0 mm 1 m/s 757 mmHg 76%
    09:00 +26°C° 0 mm 1 m/s 757 mmHg 65%
    10:00 +29°C° 0 mm 1 m/s 757 mmHg 54%
    11:00 +30°C° 0 mm 2 m/s 756 mmHg 51%
    12:00 +31°C° 0 mm 3 m/s 756 mmHg 48%
    13:00 +31°C° 0 mm 3 m/s 755 mmHg 49%
    14:00 +30°C° 0 mm 3 m/s 755 mmHg 52%
    15:00 +30°C° 0 mm 4 m/s 755 mmHg 54%
    16:00 +29°C° 0 mm 4 m/s 754 mmHg 57%
    17:00 +27°C° 0 mm 4 m/s 755 mmHg 64%
    18:00 +25°C° 0 mm 5 m/s 755 mmHg 72%
    19:00 +22°C° 0 mm 5 m/s 755 mmHg 80%
    20:00 +22°C° 0 mm 4 m/s 756 mmHg 82%
    21:00 +22°C° 0 mm 4 m/s 756 mmHg 84%
    22:00 +22°C° 0 mm 4 m/s 757 mmHg 85%
    23:00 +21°C° 0 mm 3 m/s 757 mmHg 85%

    Mâine, 28 Iulie, Vineri

    Timp Temperatura Precipitaţii Vânt Presiune Umiditate
    00:00 +21°C° 0 mm 3 m/s 757 mmHg 85%
    01:00 +21°C° 0 mm 3 m/s 757 mmHg 85%
    02:00 +21°C° 0 mm 3 m/s 756 mmHg 86%
    03:00 +21°C° 0 mm 3 m/s 756 mmHg 86%
    04:00 +21°C° 0 mm 3 m/s 756 mmHg 86%
    05:00 +21°C° 0 mm 3 m/s 756 mmHg 86%
    06:00 +21°C° 0 mm 3 m/s 756 mmHg 85%
    07:00 +21°C° 0 mm 3 m/s 756 mmHg 84%
    08:00 +24°C° 0 mm 3 m/s 756 mmHg 75%
    09:00 +26°C° 0 mm 2 m/s 756 mmHg 66%
    10:00 +27°C° 0 mm 2 m/s 756 mmHg 58%
    11:00 +29°C° 0 mm 3 m/s 756 mmHg 51%
    12:00 +31°C° 0 mm 3 m/s 755 mmHg 44%
    13:00 +34°C° 0 mm 4 m/s 754 mmHg 36%
    14:00 +33°C° 0 mm 4 m/s 754 mmHg 42%
    15:00 +32°C° 0 mm 5 m/s 753 mmHg 47%
    16:00 +30°C° 0 mm 5 m/s 753 mmHg 52%
    17:00 +28°C° 0 mm 5 m/s 753 mmHg 60%
    18:00 +26°C° 0 mm 5 m/s 754 mmHg 69%
    19:00 +22°C° 0 mm 5 m/s 754 mmHg 77%
    20:00 +22°C° 0 mm 5 m/s 755 mmHg 80%
    21:00 +22°C° 0 mm 4 m/s 755 mmHg 84%
    22:00 +21°C° 0 mm 3 m/s 756 mmHg 87%
    23:00 +21°C° 0 mm 3 m/s 756 mmHg 87%

    Poimâine, 29 Iulie, Sâmbătă

    Timp Temperatura Precipitaţii Vânt Presiune Umiditate
    00:00 +21°C° 0 mm 2 m/s 756 mmHg 87%
    01:00 +21°C° 0 mm 2 m/s 756 mmHg 87%
    02:00 +21°C° 0 mm 2 m/s 756 mmHg 86%
    03:00 +21°C° 0 mm 2 m/s 756 mmHg 85%
    04:00 +21°C° 0 mm 2 m/s 755 mmHg 84%
    05:00 +22°C° 0 mm 1 m/s 756 mmHg 83%
    06:00 +22°C° 0 mm 1 m/s 756 mmHg 81%
    07:00 +22°C° 0 mm 1 m/s 756 mmHg 79%
    08:00 +23°C° 0 mm 1 m/s 756 mmHg 76%
    09:00 +24°C° 0 mm 1 m/s 757 mmHg 72%
    10:00 +23°C° 0 mm 0 m/s 757 mmHg 68%
    11:00 +27°C° 0 mm 1 m/s 756 mmHg 60%
    12:00 +29°C° 0 mm 2 m/s 755 mmHg 52%
    13:00 +32°C° 0 mm 4 m/s 755 mmHg 43%
    14:00 +30°C° 0 mm 4 m/s 754 mmHg 48%
    15:00 +29°C° 0 mm 4 m/s 754 mmHg 53%
    16:00 +27°C° 0 mm 5 m/s 753 mmHg 58%
    17:00 +26°C° 0 mm 5 m/s 754 mmHg 65%
    18:00 +23°C° 0 mm 4 m/s 754 mmHg 73%
    19:00 +22°C° 0 mm 4 m/s 755 mmHg 80%
    20:00 +21°C° 0 mm 3 m/s 755 mmHg 83%
    21:00 +21°C° 0 mm 2 m/s 756 mmHg 85%
    22:00 +21°C° 0 mm 2 m/s 757 mmHg 87%
    23:00 +22°C° 0 mm 1 m/s 757 mmHg 84%

    30 Iulie, Duminică

    Timp Temperatura Precipitaţii Vânt Presiune Umiditate
    00:00 +23°C° 0 mm 1 m/s 756 mmHg 82%
    01:00 +23°C° 0 mm 1 m/s 756 mmHg 79%
    02:00 +23°C° 0 mm 1 m/s 756 mmHg 78%
    03:00 +23°C° 0 mm 1 m/s 756 mmHg 78%
    04:00 +23°C° 0 mm 1 m/s 755 mmHg 77%
    05:00 +23°C° 0 mm 1 m/s 756 mmHg 77%
    06:00 +23°C° 0 mm 1 m/s 756 mmHg 76%
    07:00 +23°C° 0 mm 2 m/s 756 mmHg 75%
    08:00 +24°C° 0 mm 2 m/s 757 mmHg 69%
    09:00 +26°C° 0 mm 2 m/s 757 mmHg 63%
    10:00 +27°C° 0 mm 2 m/s 757 mmHg 56%
    11:00 +28°C° 0 mm 2 m/s 756 mmHg 52%
    12:00 +30°C° 0 mm 3 m/s 755 mmHg 48%
    13:00 +32°C° 0 mm 4 m/s 754 mmHg 44%
    14:00 +30°C° 0 mm 5 m/s 754 mmHg 49%
    15:00 +28°C° 0 mm 5 m/s 753 mmHg 54%
    16:00 +27°C° 0 mm 6 m/s 753 mmHg 60%
    17:00 +24°C° 0 mm 6 m/s 753 mmHg 67%
    18:00 +23°C° 0 mm 5 m/s 754 mmHg 73%
    19:00 +22°C° 0 mm 5 m/s 755 mmHg 80%
    20:00 +21°C° 0 mm 4 m/s 755 mmHg 83%
    21:00 +21°C° 0 mm 2 m/s 756 mmHg 85%
    22:00 +22°C° 0 mm 1 m/s 757 mmHg 87%
    23:00 +22°C° 0 mm 1 m/s 757 mmHg 86%

    31 Iulie, Luni

    Timp Temperatura Precipitaţii Vânt Presiune Umiditate
    00:00 +22°C° 0 mm 1 m/s 756 mmHg 84%
    01:00 +23°C° 0 mm 1 m/s 756 mmHg 82%
    02:00 +23°C° 0,1 mm 1 m/s 756 mmHg 81%
    03:00 +23°C° 0,1 mm 1 m/s 756 mmHg 80%
    04:00 +23°C° 0,1 mm 1 m/s 756 mmHg 78%
    05:00 +23°C° 0 mm 1 m/s 756 mmHg 77%
    06:00 +23°C° 0 mm 1 m/s 756 mmHg 76%
    07:00 +23°C° 0 mm 1 m/s 757 mmHg 75%
    08:00 +24°C° 0 mm 1 m/s 757 mmHg 71%
    09:00 +25°C° 0 mm 1 m/s 757 mmHg 66%
    10:00 +26°C° 0 mm 1 m/s 757 mmHg 62%
    11:00 +27°C° 0 mm 2 m/s 756 mmHg 56%
    12:00 +29°C° 0 mm 3 m/s 755 mmHg 51%
    13:00 +30°C° 0 mm 4 m/s 755 mmHg 46%
    14:00 +29°C° 0 mm 4 m/s 754 mmHg 50%
    15:00 +28°C° 0 mm 5 m/s 754 mmHg 54%
    16:00 +27°C° 0 mm 5 m/s 753 mmHg 58%
    17:00 +26°C° 0 mm 5 m/s 754 mmHg 64%
    18:00 +23°C° 0 mm 5 m/s 755 mmHg 71%
    19:00 +22°C° 0 mm 4 m/s 756 mmHg 77%
    20:00 +22°C° 0 mm 4 m/s 757 mmHg 79%
    21:00 +21°C° 0 mm 3 m/s 757 mmHg 81%
    22:00 +21°C° 0 mm 3 m/s 758 mmHg 83%
    23:00 +21°C° 0,1 mm 2 m/s 758 mmHg 82%

    1 August, Marţi

    Timp Temperatura Precipitaţii Vânt Presiune Umiditate
    00:00 +23°C° 0,1 mm 2 m/s 758 mmHg 81%
    01:00 +23°C° 0,1 mm 1 m/s 757 mmHg 80%
    02:00 +23°C° 0,1 mm 1 m/s 757 mmHg 80%
    03:00 +23°C° 0,1 mm 2 m/s 757 mmHg 80%
    04:00 +23°C° 0,1 mm 2 m/s 757 mmHg 81%
    05:00 +23°C° 0 mm 1 m/s 757 mmHg 80%
    06:00 +23°C° 0 mm 1 m/s 757 mmHg 80%
    07:00 +23°C° 0 mm 1 m/s 757 mmHg 79%
    08:00 +22°C° 0 mm 0 m/s 757 mmHg 71%
    09:00 +24°C° 0 mm 0 m/s 757 mmHg 63%
    10:00 +26°C° 0 mm 0 m/s 758 mmHg 55%
    11:00 +29°C° 0 mm 1 m/s 757 mmHg 50%
    12:00 +30°C° 0 mm 2 m/s 756 mmHg 46%
    13:00 +32°C° 0 mm 4 m/s 755 mmHg 41%
    14:00 +30°C° 0 mm 4 m/s 755 mmHg 46%
    15:00 +29°C° 0 mm 5 m/s 754 mmHg 51%
    16:00 +27°C° 0 mm 6 m/s 754 mmHg 56%
    17:00 +26°C° 0 mm 5 m/s 754 mmHg 63%
    18:00 +25°C° 0 mm 5 m/s 755 mmHg 69%
    19:00 +22°C° 0 mm 4 m/s 756 mmHg 75%
    20:00 +22°C° 0 mm 4 m/s 756 mmHg 77%
    21:00 +22°C° 0 mm 4 m/s 757 mmHg 80%
    22:00 +21°C° 0 mm 3 m/s 757 mmHg 82%
    23:00 +21°C° 0 mm 3 m/s 757 mmHg 82%
    Arată mai mult